STARLINK-11280, 61245

Orbit data source: Space-Track

STARLINK-11280, 61245 is a payload satellite owned by SpaceX/Seattle (US) in LEO that was launched on Wed, 25 Sep 2024 UTC via an FALCON 9 launch vehicle from the Air Force Western Test Range (AFWTR). Payload-class satellites include a variety of spacecraft equipped with specific instruments for various scientific and technological missions. These include communications satellites like Starlink; space stations such as the ISS; scientific satellites like the Hubble; Earth observation satellites from companies like Planet Labs, Umbra, and HawkEye 360; GPS; miniature CubeSats for education and research; and military/defense satellites.

Loading next visibility...
Identifier
61245, 2024-175C
Orbit
LEO
Country
Flag of USUS
Related business
Manufacturer
SpaceX/Seattle
Mission
Operational Commercial Communications
Bus & Motor
STARLINK V2MD, Unknown motor
Mass
960 kg wet, ~910 kg dry
Launch date (UTC)
2024-09-25 (2 years ago)
Launch vehicle
FALCON 9
Launch site
Air Force Western Test Range (AFWTR)
Object type
Payload
Rocket body
Debris
Shape & HBR
Box + 2 Pan, 18.1 m
Radar Cross Section
36.964 m², Large (>1 m²)

Expand to show TLE details & history
Last TLE update: 17 hours ago

TLE from 17 hours ago
0 STARLINK-11280
1 61245U 24175C   26126.40711380 -.00002787  00000-0 -18178-4 0  9993
2 61245  53.1591 131.6055 0001151  72.8375 287.2769 15.69675427 92436
Epoch: 2026-05-06T09:46Z
TLE epoch observation values (Epoch: 2026-05-06T09:46:14.632Z)
Latitude
-0°
Longitude
120.77648°
Altitude
360.51 km
Speed
7.694 km/s
True Right ascension
08h 46m 25s
True Declination
0° 00' 00"
Sunlit
Object was in daylight at epoch
Visualization orbit readout
Latitude
Unknown
Longitude
Unknown
Altitude
Unknown
Speed
Unknown
Apparent Right ascension
Unknown
Apparent Declination
Unknown
Sunlit
N/A
Visualization observer readout
Local Sidereal Time
10:36:55
Azimuth
Unknown
Elevation
Unknown
Doppler factor
Unknown
Orbital elements
Apogee altitude
360.862 km
Perigee altitude
359.311 km
Semi-major axis
6,738.224 km
Eccentricity
0.00012
Inclination
53.1591°
RAAN
131.6055°
Arg. of periapsis
72.8375°
True anomaly
287.26431°
Mean anomaly
287.2769°
Eccentric anomaly
287.2706°
Mean motion
3.92396 °/min
Orbital period
91.74 mins
BSTAR
-0.000018178
Loading maneuver chart data...
Computing Atmospheric mass density...
Loading historical data...
Loading historical data...
Loading historical data...
Loading historical data...
Loading historical data...
Loading historical data...
Loading historical data...

Documentation

Showing up to 5 results
|